Regional Weather Roundup
Issued by NWS

Home | Current Version | Previous Version | Text Only | Print | Product List | Glossary On
Versions: 1 2 3 4 5 6 7 8 9 10 11 12 13 14 15 16 17 18 19 20 21 22 23 24 25 26 27 28 29 30 31 32 33 34 35 36 37 38 39 40 41 42 43 44 45 46 47 48 49 50
000
ASUS43 KMKX 261059
RWRWI

WISCONSIN REGIONAL WEATHER ROUNDUP
NATIONAL WEATHER SERVICE MILWAUKEE/SULLIVAN WI
500 AM CST MON JAN 26 2015

NOTE: "FAIR" INDICATES FEW OR NO CLOUDS BELOW 12,000 FEET WITH NO
SIGNIFICANT WEATHER AND/OR OBSTRUCTIONS TO VISIBILITY.

WIZ001-002-006>008-014>016-023>028-261200-
NORTHWEST WISCONSIN

CITY           SKY/WX    TMP DP  RH WIND       PRES   REMARKS
SUPERIOR ARPT  LGT SNOW  21  19  91 S8        29.73F WCI  11
ASHLAND        FLURRIES  20  12  71 S9        29.80F WCI   9
HAYWARD        LGT SNOW  19  14  81 S10       29.77F WCI   7
SIREN          LGT SNOW  21  19  91 SE7       29.77F WCI  12
CUMBERLAND     LGT SNOW  19  16  86 S7        29.79F WCI  10
RICE LAKE      LGT SNOW  19  16  87 SE8       29.82F WCI   9
CHETEK         LGT SNOW  19  16  86 SE7       29.82F WCI  10
LADYSMITH      CLOUDY    19  11  73 SE9       29.85F WCI   7
EAU CLAIRE     FLURRIES  21  14  74 SE10      29.82F WCI  10
MENOMONIE      LGT SNOW  21  17  84 SE8       29.83F WCI  12
NEW RICHMOND   FLURRIES  22  19  88 S7        29.79F WCI  13
OSCEOLA        LGT SNOW  23  20  89 SE8       29.81F WCI  14
$$

WIZ003>005-009-010-017-018-261200-
NORTH CENTRAL WISCONSIN

CITY           SKY/WX    TMP DP  RH WIND       PRES   REMARKS
MANITOWISH WTR LGT SNOW  12   9  85 S5        29.82F WCI   4
ARBOR VITAE    LGT SNOW  14   8  77 S9        29.83F WCI   2
WOODRUFF       LGT SNOW  14   8  77 S9        29.83F WCI   2
RHINELANDER    FLURRIES  13   5  70 SW10      29.85F WCI   0
EAGLE RIVER    MOCLDY    12   4  69 S6        29.83F WCI   3
LAND O LAKES   CLOUDY    13   6  73 S6        29.83F WCI   4
PHILLIPS       CLOUDY    15   7  71 S8        29.82F WCI   3
TOMAHAWK       CLOUDY    13   7  77 CALM      29.87F
MEDFORD        CLOUDY    14   8  78 S9        29.86F WCI   2
MERRILL        CLOUDY    14   7  72 S5        29.89S WCI   6
$$

WIZ029-030-035-036-043>047-261200-
CENTRAL WISCONSIN

CITY           SKY/WX    TMP DP  RH WIND       PRES   REMARKS
WAUSAU         CLOUDY    14   7  73 S5        29.89F WCI   6
MOSINEE        CLOUDY    12   9  85 SE5       29.90F WCI   4
MARSHFIELD     CLOUDY    16   8  71 S8        29.88F WCI   5
STEVENS POINT  CLOUDY    10   7  85 CALM      29.92F
WAUPACA        CLOUDY    14  10  81 CALM      29.96F
WAUTOMA        NOT AVBL
WISC RAPIDS    CLOUDY    14   7  73 S6        29.92F WCI   5
CAMP DOUGLAS   NOT AVBL
$$

WIZ011>013-019>022-031-037>040-048>050-261200-
NORTHEAST WISCONSIN

CITY           SKY/WX    TMP DP  RH WIND       PRES   REMARKS
ANTIGO         CLOUDY    10   6  81 SW5       29.88F WCI   2
SHAWANO        MOCLDY    12   8  84 CALM      29.96F
OCONTO         MOCLDY    10   8  92 CALM      29.98S
STURGEON BAY   MOCLDY    10   5  79 CALM      29.97S
GREEN BAY      MOCLDY    13   9  84 CALM      29.97S
MANITOWOC      NOT AVBL
APPLETON       NOT AVBL
CLINTONVILLE   CLOUDY    12   9  85 CALM      29.96S
OSHKOSH        MOCLDY    14   8  77 W3        29.95F
$$

WIZ032>034-041-042-053>061-261200-
SOUTHWEST WISCONSIN

CITY           SKY/WX    TMP DP  RH WIND       PRES   REMARKS
LA CROSSE      CLOUDY    23  14  68 S14       29.91F WCI  11
SPARTA         CLOUDY    20  12  72 S5        29.92F WCI  13
VIROQUA        CLOUDY    19  13  79 S9        29.90F WCI   7
BOSCOBEL       CLOUDY    20  13  74 CALM      29.96F
PRAIRIE DU CHI CLOUDY    21  12  66 CALM      29.95F
PLATTEVILLE    CLOUDY    18  14  84 S3        29.96S
$$

WIZ056-057-062-063-064-067-068-261200-
SOUTH CENTRAL WISCONSIN

CITY           SKY/WX    TMP DP  RH WIND       PRES   REMARKS
REEDSBURG      CLOUDY    15  11  84 CALM      29.94F
BARABOO/DELLS  CLOUDY    15  11  85 CALM      29.94F
LONE ROCK      NOT AVBL
MINERAL POINT  CLOUDY    18  14  86 CALM      29.94F
MADISON        CLOUDY    15  10  80 CALM      29.95F
MIDDLETON      CLOUDY    16  11  83 CALM      29.96F
WATERTOWN      MOCLDY    11  10  92 CALM      29.96S
MONROE         CLOUDY    16  12  86 NW5       29.95S WCI   9
JANESVILLE     MOCLDY    14  12  92 CALM      29.97F
$$

WIZ051-052-058>065-066-070>072-261200-
SOUTHEAST WISCONSIN

CITY           SKY/WX    TMP DP  RH WIND       PRES   REMARKS
MILWAUKEE      MOCLDY    18  11  74 W3        29.96F
WAUKESHA       CLEAR     10   9  92 CALM      29.96F
MILWAUKEE/TIMM PTCLDY    14  10  85 CALM      29.98S
RACINE         MOCLDY    18  12  77 W5        29.98F WCI  11
BURLINGTON     CLEAR      9   7  92 CALM      29.96F
KENOSHA        CLOUDY    17  13  84 VRB3      29.96F
FOND DU LAC    MOCLDY    13   7  77 W3        29.96F
SHEBOYGAN      MOCLDY    12   9  87 CALM      29.95F
WEST BEND      PTCLDY    12   9  85 CALM      29.95F
JUNEAU         MOCLDY    11   8  86 CALM      29.96F
$$

LSZ147-162-261200-
LAKE SUPERIOR

STATION/POSITION TIME  TEMP    WIND        PRES    WAVE
                       AIR SEA DIR/SP/G            HT/PER
                 (UTC) (F)     (DEG/KT/KT) (MB)    (FT/S)
DEVILS ISLAND    1000   20     180/  9/ 12 1011.1F
PORT WING        1000   21     170/  9/ 14 1009.5F
SAXON HARBOR     1000   21     190/  8/ 11 1010.8F
$$

LMZ867-665-643>646-261200-
LAKE MICHIGAN

STATION/POSITION TIME  TEMP    WIND        PRES    WAVE
                       AIR SEA DIR/SP/G            HT/PER
                 (UTC) (F)     (DEG/KT/KT) (MB)    (FT/S)
NORTHPORT PIER   1014   15      CALM  /  3 1015.2F
SISTER BAY       1013   11        CALM       N/A
KEWAUNEE LAKESHO 1000          300/  3/  6   N/A
SHEBOYGAN LAKESH 1000   20     260/  2/  4 1016.2F
PORT WASHINGTON  1040   16        CALM     1015.6F
MILWAUKEE LAKESH 1000   19     290/  4/  5   N/A
KENOSHA   LAKESH 1000   20     280/  5/  6 1015.2F
$$

TC  - TEMPERATURE IN CELSIUS
VSB - VISIBILITY IN STATUTE MILES
WCI - WIND CHILL INDEX
HX  - HEAT INDEX



USA.gov is the U.S. government's official web portal to all federal, state and local government web resources and services.